TimeCST,TemperatureF,Dew PointF,Humidity,Sea Level PressureIn,VisibilityMPH,Wind Direction,Wind SpeedMPH,Gust SpeedMPH,PrecipitationIn,Events,Conditions,WindDirDegrees,DateUTC
12:53 AM,51.1,33.1,50,30.39,10.0,East,3.5,-,N/A,,Overcast,90,2012-11-14 06:53:00
1:53 AM,50.0,32.0,50,30.40,10.0,Calm,Calm,-,N/A,,Overcast,0,2012-11-14 07:53:00
2:53 AM,50.0,34.0,54,30.40,10.0,Calm,Calm,-,N/A,,Overcast,0,2012-11-14 08:53:00
3:53 AM,50.0,34.0,54,30.40,10.0,Calm,Calm,-,N/A,,Overcast,0,2012-11-14 09:53:00
4:53 AM,46.9,33.1,59,30.39,10.0,Calm,Calm,-,N/A,,Scattered Clouds,0,2012-11-14 10:53:00
5:53 AM,43.0,34.0,71,30.40,10.0,Calm,Calm,-,N/A,,Mostly Cloudy,0,2012-11-14 11:53:00
6:53 AM,42.1,33.1,70,30.42,10.0,Calm,Calm,-,N/A,,Clear,0,2012-11-14 12:53:00
7:53 AM,46.9,35.1,63,30.43,10.0,Calm,Calm,-,N/A,,Clear,0,2012-11-14 13:53:00
8:53 AM,51.1,37.0,59,30.45,10.0,East,4.6,-,N/A,,Clear,100,2012-11-14 14:53:00
9:53 AM,53.1,30.9,43,30.45,10.0,SSE,5.8,-,N/A,,Clear,160,2012-11-14 15:53:00
10:53 AM,57.0,28.9,34,30.44,10.0,Variable,4.6,-,N/A,,Clear,0,2012-11-14 16:53:00
11:53 AM,59.0,30.0,33,30.42,10.0,NE,5.8,-,N/A,,Clear,40,2012-11-14 17:53:00
12:53 PM,61.0,28.0,29,30.38,10.0,Calm,Calm,-,N/A,,Clear,0,2012-11-14 18:53:00
1:53 PM,62.1,27.0,26,30.35,10.0,NNW,4.6,-,N/A,,Clear,330,2012-11-14 19:53:00
2:53 PM,62.1,26.1,25,30.33,10.0,Calm,Calm,-,N/A,,Clear,0,2012-11-14 20:53:00
3:53 PM,62.1,28.0,28,30.32,10.0,NNE,5.8,-,N/A,,Clear,20,2012-11-14 21:53:00
4:53 PM,59.0,28.0,31,30.32,10.0,ENE,6.9,-,N/A,,Clear,60,2012-11-14 22:53:00
5:53 PM,54.0,30.0,40,30.31,10.0,ENE,3.5,-,N/A,,Clear,70,2012-11-14 23:53:00
6:53 PM,51.1,30.0,44,30.33,10.0,East,3.5,-,N/A,,Clear,80,2012-11-15 00:53:00
7:53 PM,52.0,30.9,45,30.33,10.0,ENE,5.8,-,N/A,,Clear,60,2012-11-15 01:53:00
8:53 PM,48.9,33.1,54,30.33,10.0,East,4.6,-,N/A,,Clear,100,2012-11-15 02:53:00
9:53 PM,46.9,30.0,52,30.33,10.0,East,5.8,-,N/A,,Clear,100,2012-11-15 03:53:00
10:53 PM,46.9,30.9,54,30.32,10.0,ESE,4.6,-,N/A,,Clear,120,2012-11-15 04:53:00
11:53 PM,46.0,32.0,58,30.32,10.0,ESE,4.6,-,N/A,,Clear,110,2012-11-15 05:53:00